Total_Precipitation_Accumulation
0.03 0.05 0.16 0.18 0.20 0.15 0.10 0.08 0.06 0.06 0.07 0.08 0.09 0.10 0.10 0.10 0.11 0.11 0.12 0.14 0.16 0.20 0.26 0.28 0.33 0.45 0.43 0.29 0.17 0.09 0.06 0.05 0.03 0.03 0.03 0.05 0.07 0.11 0.09 0.08 0.09 0.13 0.17
0.02 0.05 0.13 0.16 0.20 0.16 0.12 0.10 0.06 0.05 0.06 0.08 0.10 0.11 0.12 0.12 0.12 0.14 0.16 0.18 0.20 0.24 0.27 0.30 0.35 0.39 0.33 0.24 0.15 0.06 0.03 0.02 0.01 0.01 0.01 0.02 0.05 0.08 0.06 0.06 0.07 0.13 0.16
0.03 0.06 0.12 0.15 0.19 0.17 0.13 0.09 0.05 0.05 0.06 0.09 0.12 0.13 0.15 0.14 0.15 0.16 0.18 0.20 0.22 0.23 0.25 0.30 0.30 0.27 0.23 0.20 0.13 0.05 0.02 0.01 0.01 0.01 0.02 0.03 0.07 0.09 0.08 0.08 0.11 0.14 0.15
0.05 0.07 0.11 0.14 0.17 0.18 0.14 0.09 0.06 0.06 0.08 0.11 0.13 0.15 0.18 0.16 0.17 0.18 0.19 0.19 0.18 0.18 0.19 0.20 0.16 0.12 0.08 0.08 0.07 0.04 0.02 0.01 0.01 0.01 0.03 0.04 0.07 0.14 0.14 0.13 0.14 0.16 0.16
0.10 0.11 0.15 0.18 0.18 0.18 0.16 0.12 0.09 0.08 0.09 0.11 0.12 0.14 0.19 0.21 0.19 0.19 0.17 0.15 0.11 0.10 0.10 0.09 0.06 0.04 0.03 0.02 0.03 0.02 0.02 0.01 0.01 0.02 0.03 0.04 0.08 0.16 0.15 0.14 0.15 0.16 0.17
0.14 0.14 0.19 0.23 0.22 0.20 0.18 0.14 0.12 0.11 0.11 0.11 0.10 0.12 0.18 0.24 0.23 0.18 0.13 0.09 0.06 0.05 0.05 0.04 0.02 0.02 0.01 0.01 0.01 0.01 0.01 0.01 0.01 0.02 0.03 0.04 0.06 0.15 0.15 0.13 0.14 0.15 0.16
0.19 0.19 0.23 0.29 0.28 0.25 0.25 0.20 0.15 0.14 0.14 0.13 0.10 0.12 0.17 0.23 0.24 0.17 0.10 0.06 0.03 0.03 0.04 0.03 0.02 0.01 0.01 0.01 0.01 0.01 0.01 0.01 0.01 0.02 0.03 0.04 0.07 0.15 0.14 0.13 0.13 0.14 0.14
0.28 0.29 0.29 0.35 0.35 0.31 0.28 0.27 0.22 0.18 0.16 0.16 0.14 0.15 0.17 0.20 0.21 0.15 0.08 0.05 0.04 0.03 0.03 0.02 0.02 0.01 0.01 0.01 0.01 0.01 0.01 0.01 0.01 0.01 0.02 0.02 0.06 0.11 0.11 0.10 0.11 0.12 0.12
0.43 0.41 0.42 0.39 0.40 0.41 0.33 0.28 0.26 0.22 0.20 0.18 0.16 0.18 0.17 0.17 0.18 0.12 0.07 0.06 0.05 0.04 0.03 0.03 0.03 0.03 0.02 0.02 0.01 0.01 0.00 0.00 0.00 0.01 0.01 0.02 0.04 0.08 0.09 0.09 0.12 0.14 0.14
0.64 0.54 0.51 0.48 0.43 0.43 0.40 0.34 0.27 0.22 0.20 0.19 0.17 0.14 0.12 0.13 0.15 0.11 0.05 0.06 0.05 0.04 0.03 0.03 0.03 0.03 0.02 0.02 0.01 0.00 0.00 0.00 0.00 0.00 0.01 0.01 0.04 0.07 0.07 0.10 0.11 0.14 0.15
0.93 0.77 0.62 0.58 0.50 0.46 0.41 0.37 0.34 0.28 0.23 0.21 0.18 0.13 0.11 0.13 0.12 0.10 0.05 0.04 0.04 0.03 0.02 0.02 0.02 0.02 0.01 0.01 0.00 0.00 0.00 0.00 0.00 0.00 0.00 0.01 0.04 0.05 0.05 0.08 0.09 0.10 0.11
1.03 0.92 0.73 0.63 0.55 0.53 0.45 0.41 0.39 0.34 0.29 0.23 0.17 0.14 0.11 0.11 0.09 0.07 0.06 0.04 0.04 0.03 0.02 0.01 0.01 0.01 0.00 0.00 0.00 0.00 0.00 0.00 0.00 0.00 0.00 0.01 0.04 0.05 0.05 0.05 0.05 0.06 0.07
1.19 1.11 0.90 0.74 0.68 0.61 0.52 0.44 0.41 0.34 0.29 0.26 0.19 0.15 0.12 0.11 0.09 0.08 0.06 0.06 0.04 0.02 0.01 0.01 0.01 0.00 0.00 0.00 0.00 0.00 0.00 0.00 0.00 0.00 0.00 0.01 0.03 0.04 0.04 0.04 0.05 0.05 0.07
1.46 1.43 1.18 0.94 0.80 0.72 0.58 0.45 0.39 0.33 0.26 0.22 0.19 0.15 0.12 0.10 0.09 0.07 0.05 0.04 0.04 0.02 0.01 0.01 0.00 0.00 0.00 0.00 0.00 0.00 0.00 0.00 0.00 0.00 0.00 0.00 0.01 0.02 0.04 0.04 0.05 0.06 0.08
1.71 1.70 1.56 1.26 0.99 0.83 0.71 0.55 0.41 0.34 0.25 0.20 0.18 0.16 0.11 0.09 0.07 0.06 0.04 0.04 0.04 0.02 0.01 0.00 0.00 0.00 0.00 0.00 0.00 0.00 0.00 0.00 0.00 0.00 0.00 0.00 0.00 0.01 0.03 0.04 0.06 0.08 0.11
1.88 1.95 1.89 1.59 1.27 0.99 0.83 0.65 0.48 0.36 0.28 0.23 0.19 0.16 0.13 0.08 0.07 0.07 0.04 0.04 0.04 0.03 0.01 0.00 0.00 0.00 0.00 0.00 0.00 0.00 0.00 0.00 0.00 0.00 0.00 0.00 0.00 0.01 0.01 0.03 0.06 0.10 0.14
1.93 2.06 2.07 1.94 1.64 1.20 0.96 0.80 0.63 0.51 0.37 0.28 0.23 0.18 0.15 0.11 0.07 0.06 0.06 0.04 0.04 0.04 0.03 0.01 0.01 0.01 0.00 0.00 0.00 0.01 0.00 0.00 0.00 0.00 0.00 0.00 0.01 0.01 0.01 0.02 0.06 0.11 0.14
2.02 2.05 2.11 2.06 1.91 1.50 1.12 0.92 0.78 0.69 0.56 0.41 0.35 0.31 0.24 0.18 0.12 0.09 0.06 0.05 0.05 0.04 0.04 0.02 0.01 0.02 0.02 0.02 0.02 0.01 0.01 0.01 0.00 0.00 0.00 0.00 0.00 0.01 0.00 0.01 0.04 0.07 0.11
1.92 2.05 2.21 2.09 1.98 1.75 1.45 1.21 1.03 0.87 0.74 0.62 0.47 0.39 0.37 0.30 0.23 0.17 0.10 0.08 0.07 0.06 0.05 0.04 0.03 0.03 0.02 0.02 0.01 0.01 0.01 0.01 0.00 0.00 0.00 0.00 0.00 0.00 0.01 0.01 0.01 0.03 0.05
1.75 1.94 2.10 2.27 2.16 2.07 1.97 1.73 1.40 1.14 0.91 0.79 0.65 0.53 0.48 0.44 0.38 0.32 0.23 0.16 0.14 0.12 0.08 0.06 0.04 0.03 0.02 0.02 0.02 0.01 0.01 0.01 0.01 0.01 0.01 0.01 0.01 0.01 0.01 0.01 0.01 0.02 0.02
1.60 1.79 1.90 2.06 2.18 2.12 1.96 1.76 1.48 1.21 1.08 1.01 0.88 0.78 0.67 0.58 0.52 0.45 0.36 0.28 0.21 0.17 0.14 0.12 0.11 0.08 0.05 0.05 0.04 0.03 0.01 0.01 0.01 0.01 0.01 0.01 0.01 0.02 0.02 0.02 0.03 0.03 0.03
1.38 1.50 1.70 1.79 1.98 1.94 1.78 1.74 1.64 1.58 1.46 1.33 1.20 0.98 0.84 0.75 0.66 0.55 0.46 0.41 0.33 0.25 0.21 0.20 0.19 0.15 0.11 0.11 0.12 0.13 0.07 0.03 0.03 0.03 0.03 0.03 0.03 0.04 0.04 0.04 0.04 0.04 0.05
1.12 1.36 1.42 1.49 1.72 1.86 1.88 1.99 2.05 1.98 1.70 1.45 1.27 1.16 1.03 0.94 0.85 0.73 0.62 0.56 0.50 0.42 0.33 0.34 0.32 0.29 0.29 0.28 0.25 0.30 0.26 0.16 0.10 0.06 0.05 0.05 0.05 0.04 0.03 0.04 0.04 0.05 0.06
0.82 1.11 1.37 1.46 1.58 1.74 1.98 1.98 1.91 1.78 1.56 1.29 1.26 1.31 1.26 1.14 1.03 0.93 0.84 0.78 0.71 0.63 0.55 0.54 0.55 0.55 0.53 0.47 0.41 0.38 0.39 0.34 0.33 0.22 0.10 0.07 0.07 0.06 0.06 0.07 0.06 0.07 0.07
0.62 0.83 1.08 1.35 1.53 1.66 1.74 1.80 1.85 1.71 1.59 1.52 1.42 1.34 1.24 1.14 1.07 1.01 0.95 0.93 0.89 0.85 0.84 0.83 0.79 0.77 0.73 0.67 0.61 0.57 0.56 0.50 0.46 0.45 0.30 0.17 0.15 0.15 0.14 0.13 0.12 0.13 0.14
0.50 0.62 0.79 1.03 1.22 1.37 1.49 1.57 1.62 1.62 1.66 1.62 1.45 1.36 1.31 1.26 1.20 1.11 1.06 1.04 1.05 1.01 0.98 0.98 0.97 0.96 0.96 0.91 0.86 0.76 0.72 0.66 0.59 0.64 0.59 0.41 0.34 0.27 0.24 0.23 0.23 0.23 0.23